TimeMST,TemperatureF,Dew PointF,Humidity,Sea Level PressureIn,VisibilityMPH,Wind Direction,Wind SpeedMPH,Gust SpeedMPH,PrecipitationIn,Events,Conditions,WindDirDegrees,DateUTC
12:11 AM,15.8,8.6,73,29.91,-9999.0,Calm,Calm,-,N/A,,Overcast,0,2012-12-09 07:11:00
12:35 AM,15.8,-0.4,49,29.92,-9999.0,NW,6.9,-,N/A,,Overcast,320,2012-12-09 07:35:00
12:51 AM,14.0,-0.4,53,29.92,-9999.0,West,5.8,-,N/A,,Overcast,280,2012-12-09 07:51:00
1:15 AM,14.0,-2.2,49,29.92,-9999.0,West,3.5,-,N/A,,Overcast,280,2012-12-09 08:15:00
1:35 AM,14.0,-2.2,49,29.92,-9999.0,NW,4.6,-,N/A,,Overcast,320,2012-12-09 08:35:00
1:53 AM,14.0,-0.4,53,29.93,-9999.0,North,3.5,-,N/A,,Overcast,350,2012-12-09 08:53:00
2:12 AM,14.0,-0.4,53,29.94,-9999.0,Calm,Calm,-,N/A,,Overcast,0,2012-12-09 09:12:00
2:35 AM,14.0,-0.4,53,29.93,-9999.0,Calm,Calm,-,N/A,,Overcast,0,2012-12-09 09:35:00
2:55 AM,14.0,1.4,57,29.94,-9999.0,Calm,Calm,-,N/A,,Overcast,0,2012-12-09 09:55:00
3:12 AM,14.0,1.4,57,29.94,-9999.0,West,3.5,-,N/A,,Overcast,280,2012-12-09 10:12:00
3:35 AM,14.0,1.4,57,29.93,-9999.0,Calm,Calm,-,N/A,,Overcast,0,2012-12-09 10:35:00
3:53 AM,12.2,-0.4,57,29.94,-9999.0,WSW,3.5,-,N/A,,Overcast,250,2012-12-09 10:53:00
4:12 AM,12.2,-0.4,57,29.94,-9999.0,SW,3.5,-,N/A,,Overcast,220,2012-12-09 11:12:00
4:35 AM,12.2,-0.4,57,29.94,-9999.0,SW,4.6,-,N/A,,Overcast,230,2012-12-09 11:35:00
4:52 AM,12.2,-0.4,57,29.94,-9999.0,SW,5.8,-,N/A,,Overcast,230,2012-12-09 11:52:00
5:15 AM,12.2,-2.2,53,29.95,-9999.0,WNW,3.5,-,N/A,,Mostly Cloudy,300,2012-12-09 12:15:00
5:31 AM,10.4,-4.0,52,29.95,-9999.0,Calm,Calm,-,N/A,,Scattered Clouds,0,2012-12-09 12:31:00
5:51 AM,10.4,-0.4,62,29.96,-9999.0,Calm,Calm,-,N/A,,Clear,0,2012-12-09 12:51:00
6:12 AM,8.6,-4.0,57,29.96,-9999.0,North,3.5,-,N/A,,Scattered Clouds,360,2012-12-09 13:12:00
6:33 AM,8.6,-0.4,67,29.98,-9999.0,Calm,Calm,-,N/A,,Mostly Cloudy,0,2012-12-09 13:33:00
6:52 AM,6.8,-0.4,72,29.99,-9999.0,Calm,Calm,-,N/A,,Overcast,0,2012-12-09 13:52:00
7:11 AM,8.6,1.4,73,30.00,-9999.0,Calm,Calm,-,N/A,,Overcast,0,2012-12-09 14:11:00
7:32 AM,10.4,1.4,67,30.01,-9999.0,NW,4.6,-,N/A,,Overcast,320,2012-12-09 14:32:00
7:55 AM,10.4,1.4,67,30.01,-9999.0,Calm,Calm,-,N/A,,Overcast,0,2012-12-09 14:55:00
8:12 AM,10.4,1.4,67,30.01,-9999.0,Calm,Calm,-,N/A,,Overcast,0,2012-12-09 15:12:00
8:35 AM,12.2,1.4,62,30.02,-9999.0,Calm,Calm,-,N/A,,Overcast,0,2012-12-09 15:35:00
8:55 AM,12.2,-0.4,57,30.02,-9999.0,West,5.8,-,N/A,,Overcast,270,2012-12-09 15:55:00
9:33 AM,15.8,-0.4,49,30.04,-9999.0,NW,6.9,-,N/A,,Overcast,320,2012-12-09 16:33:00
9:52 AM,14.0,-0.4,53,30.04,-9999.0,NNW,6.9,-,N/A,,Scattered Clouds,330,2012-12-09 16:52:00
10:15 AM,15.8,-0.4,49,30.04,-9999.0,NW,8.1,-,N/A,,Clear,310,2012-12-09 17:15:00
10:32 AM,17.6,-0.4,45,30.04,-9999.0,NNW,6.9,-,N/A,,Clear,330,2012-12-09 17:32:00
10:55 AM,17.6,-0.4,45,30.04,-9999.0,NNW,8.1,-,N/A,,Clear,330,2012-12-09 17:55:00
11:15 AM,17.6,-4.0,38,30.04,-9999.0,North,5.8,-,N/A,,Clear,350,2012-12-09 18:15:00
11:33 AM,17.6,-5.8,35,30.04,-9999.0,NW,8.1,-,N/A,,Clear,320,2012-12-09 18:33:00
11:53 AM,19.4,-5.8,33,30.03,-9999.0,NW,6.9,-,N/A,,Clear,320,2012-12-09 18:53:00
12:15 PM,19.4,-7.6,30,30.02,-9999.0,NNW,6.9,-,N/A,,Scattered Clouds,330,2012-12-09 19:15:00
12:32 PM,19.4,-7.6,30,30.02,-9999.0,West,5.8,-,N/A,,Unknown,280,2012-12-09 19:32:00
12:55 PM,21.2,-9.4,26,30.01,-9999.0,NNW,8.1,-,N/A,,Overcast,340,2012-12-09 19:55:00
1:15 PM,19.4,-9.4,28,30.02,-9999.0,NW,8.1,-,N/A,,Overcast,310,2012-12-09 20:15:00
1:32 PM,19.4,-9.4,28,30.02,-9999.0,North,6.9,-,N/A,,Overcast,360,2012-12-09 20:32:00
1:54 PM,17.6,-7.6,32,30.02,-9999.0,North,6.9,-,N/A,,Overcast,350,2012-12-09 20:54:00
2:14 PM,17.6,-2.2,42,30.03,-9999.0,NW,9.2,-,N/A,,Overcast,320,2012-12-09 21:14:00
2:32 PM,17.6,-2.2,42,30.04,-9999.0,NW,9.2,16.1,N/A,,Overcast,310,2012-12-09 21:32:00
2:52 PM,17.6,-0.4,45,30.04,-9999.0,NW,8.1,-,N/A,,Mostly Cloudy,310,2012-12-09 21:52:00
3:15 PM,14.0,-4.0,45,30.06,-9999.0,NW,8.1,-,N/A,,Clear,320,2012-12-09 22:15:00
3:32 PM,17.6,-4.0,38,30.06,-9999.0,NW,8.1,-,N/A,,Clear,320,2012-12-09 22:32:00
3:52 PM,14.0,-4.0,45,30.06,-9999.0,NW,6.9,-,N/A,,Clear,320,2012-12-09 22:52:00
4:15 PM,14.0,-7.6,38,30.07,-9999.0,NW,8.1,-,N/A,,Clear,320,2012-12-09 23:15:00
4:34 PM,14.0,-5.8,41,30.07,-9999.0,NNW,6.9,-,N/A,,Clear,340,2012-12-09 23:34:00
4:52 PM,12.2,-7.6,41,30.08,-9999.0,NNW,5.8,-,N/A,,Clear,330,2012-12-09 23:52:00
5:15 PM,12.2,-5.8,45,30.08,-9999.0,North,6.9,-,N/A,,Clear,350,2012-12-10 00:15:00
5:34 PM,12.2,-5.8,45,30.08,-9999.0,Calm,Calm,-,N/A,,Clear,0,2012-12-10 00:34:00
5:52 PM,10.4,-5.8,48,30.09,-9999.0,North,3.5,-,N/A,,Clear,10,2012-12-10 00:52:00
6:13 PM,10.4,-4.0,52,30.09,-9999.0,North,8.1,-,N/A,,Clear,360,2012-12-10 01:13:00
6:35 PM,8.6,-2.2,62,30.10,-9999.0,Calm,Calm,-,N/A,,Clear,0,2012-12-10 01:35:00
6:55 PM,8.6,-4.0,57,30.11,-9999.0,Calm,Calm,-,N/A,,Clear,0,2012-12-10 01:55:00
7:12 PM,8.6,-4.0,57,30.11,-9999.0,Calm,Calm,-,N/A,,Clear,0,2012-12-10 02:12:00
7:32 PM,5.0,-7.6,56,30.11,-9999.0,Calm,Calm,-,N/A,,Clear,0,2012-12-10 02:32:00
7:52 PM,3.2,-5.8,66,30.11,-9999.0,Calm,Calm,-,N/A,,Clear,0,2012-12-10 02:52:00
8:15 PM,3.2,-5.8,66,30.11,-9999.0,Calm,Calm,-,N/A,,Clear,0,2012-12-10 03:15:00
8:35 PM,1.4,-5.8,72,30.10,-9999.0,Calm,Calm,-,N/A,,Clear,0,2012-12-10 03:35:00
8:55 PM,-0.4,-7.6,72,30.10,-9999.0,SE,3.5,-,N/A,,Clear,130,2012-12-10 03:55:00
9:12 PM,-0.4,-7.6,72,30.10,-9999.0,East,3.5,-,N/A,,Clear,90,2012-12-10 04:12:00
9:32 PM,-0.4,-7.6,72,30.10,-9999.0,Calm,Calm,-,N/A,,Clear,0,2012-12-10 04:32:00
9:55 PM,-0.4,-7.6,72,30.10,-9999.0,ESE,3.5,-,N/A,,Clear,110,2012-12-10 04:55:00
10:15 PM,-0.4,-9.4,66,30.11,-9999.0,East,3.5,-,N/A,,Clear,100,2012-12-10 05:15:00
10:32 PM,-0.4,-7.6,72,30.11,-9999.0,East,5.8,-,N/A,,Clear,100,2012-12-10 05:32:00
10:55 PM,-0.4,-9.4,66,30.12,-9999.0,East,3.5,-,N/A,,Clear,90,2012-12-10 05:55:00
11:11 PM,-0.4,-7.6,72,30.12,-9999.0,East,4.6,-,N/A,,Clear,90,2012-12-10 06:11:00
11:31 PM,-0.4,-7.6,72,30.12,-9999.0,Calm,Calm,-,N/A,,Mostly Cloudy,0,2012-12-10 06:31:00
11:51 PM,1.4,-7.6,66,30.12,-9999.0,Calm,Calm,-,N/A,,Overcast,0,2012-12-10 06:51:00